Regional Weather Roundup
Issued by NWS

Home | Current Version | Previous Version | Graphics & Text | Print | Product List | Glossary On
Versions: 1 2 3 4 5 6 7 8 9 10 11 12 13 14 15 16 17 18 19 20 21 22 23 24 25 26 27 28 29 30 31 32 33 34 35 36 37 38 39 40 41 42 43 44 45 46 47 48 49 50
000
ASUS43 KFSD 250710
RWRSD

WEATHER ROUNDUP FOR SOUTH DAKOTA
NATIONAL WEATHER SERVICE SIOUX FALLS SD
200 AM CDT TUE JUL 25 2017

NOTE: "FAIR" INDICATES FEW OR NO CLOUDS BELOW 12,000 FEET WITH NO
SIGNIFICANT WEATHER AND/OR OBSTRUCTIONS TO VISIBILITY.


SDZ001>005-009-010-012>017-250800-
NORTHWEST AND NORTH CENTRAL SOUTH DAKOTA

CITY           SKY/WX    TMP DP  RH WIND       PRES   REMARKS
BUFFALO          N/A     73  60  63 NE10      29.83S
FAITH            N/A     67  64  90 SW6       29.84R
MOBRIDGE       FAIR      71  65  81 E14       29.79F
$$

SDZ012>016-024>037-041>051-057-063-072>074-250800-
SOUTHWEST AND SOUTH CENTRAL SOUTH DAKOTA

CITY           SKY/WX    TMP DP  RH WIND       PRES   REMARKS
RAPID CTY ARPT FAIR      67  54  63 CALM      29.88F
PIERRE         FAIR      78  64  61 S8        29.78F
CUSTER         FAIR      70  45  40 VRB6      30.07F
ELLSWORTH AFB  FAIR      77  55  46 SW3       29.88F
PHILIP         FAIR      70  60  70 CALM      29.81S
PINE RIDGE     FAIR      75  56  51 SW7       29.90S
SPEARFISH      FAIR      82  50  32 S20G26    29.90F
WINNER         FAIR      80  69  69 S28G38    29.82F
$$

SDZ004>011-016>023-039-040-250800-
NORTHEAST SOUTH DAKOTA

CITY           SKY/WX    TMP DP  RH WIND       PRES   REMARKS
ABERDEEN       FAIR      72  66  81 SE15G21   29.85F
WATERTOWN      FAIR      70  65  84 SE16G22   29.91F
BROOKINGS      FAIR      69  64  84 SE15      29.94F
SISSETON         N/A     67  66  97 SE10      29.90F
$$

SDZ017-020-022-023-036>040-048>070-250800-
SOUTHEAST SOUTH DAKOTA

CITY           SKY/WX    TMP DP  RH WIND       PRES   REMARKS
SIOUX FALLS    FAIR      73  66  78 S15G24    29.94S
HURON          FAIR      72  67  84 E9        29.85R
CHAMBERLAIN    FAIR      82  70  66 S23       29.80S
MITCHELL       FAIR      75  67  76 SE14      29.84S
YANKTON        FAIR      76  68  76 SE14      29.89F
$$

ABBREVIATIONS USED IN REMARKS
   TC - TEMPERATURE IN CELSIUS
  WCI - WIND CHILL INDEX
   HX - HEAT INDEX
  VSB - VISIBILITY





USA.gov is the U.S. government's official web portal to all federal, state and local government web resources and services.